Time,TemperatureF,DewpointF,PressureIn,WindDirection,WindDirectionDegrees,WindSpeedMPH,WindSpeedGustMPH,Humidity,HourlyPrecipIn,Conditions,Clouds,dailyrainin,SolarRadiationWatts/m^2,SoftwareType,DateUTC
2013-07-08 00:01:00,71.0,40.0,-100.00,SW,227,6.0,14.0,32,0.00,,,0.00,0.000000,,2013-07-08 06:01:00,
2013-07-08 00:11:00,71.0,40.0,-100.00,SW,227,6.0,14.0,32,0.00,,,0.00,0.000000,,2013-07-08 06:11:00,
2013-07-08 00:12:00,66.0,43.0,-100.00,SSE,164,8.0,15.0,44,0.00,,,0.00,0.000000,,2013-07-08 06:12:00,
2013-07-08 00:43:00,66.0,43.0,-100.00,SSE,164,8.0,15.0,44,0.00,,,0.00,0.000000,,2013-07-08 06:43:00,
2013-07-08 00:53:00,66.0,43.0,-100.00,SSE,164,8.0,15.0,44,0.00,,,0.00,0.000000,,2013-07-08 06:53:00,
2013-07-08 01:02:00,66.0,43.0,-100.00,SSE,164,8.0,15.0,44,0.00,,,0.00,0.000000,,2013-07-08 07:02:00,
2013-07-08 01:12:00,65.0,44.0,-100.00,South,190,15.0,27.0,47,0.00,,,0.00,0.000000,,2013-07-08 07:12:00,
2013-07-08 01:44:00,65.0,44.0,-100.00,South,190,15.0,27.0,47,0.00,,,0.00,0.000000,,2013-07-08 07:44:00,
2013-07-08 01:53:00,65.0,44.0,-100.00,South,190,15.0,27.0,47,0.00,,,0.00,0.000000,,2013-07-08 07:53:00,
2013-07-08 02:02:00,65.0,44.0,-100.00,South,190,15.0,27.0,47,0.00,,,0.00,0.000000,,2013-07-08 08:02:00,
2013-07-08 02:42:00,63.0,44.0,-100.00,SW,225,6.0,22.0,49,0.00,,,0.00,0.000000,,2013-07-08 08:42:00,
2013-07-08 02:53:00,63.0,44.0,-100.00,SW,225,6.0,22.0,49,0.00,,,0.00,0.000000,,2013-07-08 08:53:00,
2013-07-08 03:01:00,63.0,44.0,-100.00,SW,225,6.0,22.0,49,0.00,,,0.00,0.000000,,2013-07-08 09:01:00,
2013-07-08 03:11:00,63.0,44.0,-100.00,SW,225,6.0,22.0,49,0.00,,,0.00,0.000000,,2013-07-08 09:11:00,
2013-07-08 03:43:00,62.0,45.0,-100.00,WNW,303,7.0,11.0,54,0.00,,,0.00,0.000000,,2013-07-08 09:43:00,
2013-07-08 03:53:00,62.0,45.0,-100.00,WNW,303,7.0,11.0,54,0.00,,,0.00,0.000000,,2013-07-08 09:53:00,
2013-07-08 04:02:00,62.0,45.0,-100.00,WNW,303,7.0,11.0,54,0.00,,,0.00,0.000000,,2013-07-08 10:02:00,
2013-07-08 04:11:00,62.0,45.0,-100.00,WNW,303,7.0,11.0,54,0.00,,,0.00,0.000000,,2013-07-08 10:11:00,
2013-07-08 04:43:00,60.0,45.0,-100.00,NNW,338,6.0,9.0,57,0.00,,,0.00,0.000000,,2013-07-08 10:43:00,
2013-07-08 04:53:00,60.0,45.0,-100.00,NNW,338,6.0,9.0,57,0.00,,,0.00,0.000000,,2013-07-08 10:53:00,
2013-07-08 05:02:00,60.0,45.0,-100.00,NNW,338,6.0,9.0,57,0.00,,,0.00,0.000000,,2013-07-08 11:02:00,
2013-07-08 05:11:00,60.0,45.0,-100.00,NNW,338,6.0,9.0,57,0.00,,,0.00,0.000000,,2013-07-08 11:11:00,
2013-07-08 05:33:00,59.0,44.0,-100.00,NNW,340,6.0,13.0,58,0.00,,,0.00,0.000000,,2013-07-08 11:33:00,
2013-07-08 05:43:00,59.0,44.0,-100.00,NNW,340,6.0,13.0,58,0.00,,,0.00,0.000000,,2013-07-08 11:43:00,
2013-07-08 05:53:00,59.0,44.0,-100.00,NNW,340,6.0,13.0,58,0.00,,,0.00,0.000000,,2013-07-08 11:53:00,
2013-07-08 06:01:00,59.0,44.0,-100.00,NNW,340,6.0,13.0,58,0.00,,,0.00,0.000000,,2013-07-08 12:01:00,
2013-07-08 06:11:00,59.0,44.0,-100.00,NNW,340,6.0,13.0,58,0.00,,,0.00,0.000000,,2013-07-08 12:11:00,
2013-07-08 06:43:00,60.0,45.0,-100.00,NW,321,7.0,9.0,58,0.00,,,0.00,3.000000,,2013-07-08 12:43:00,
2013-07-08 06:53:00,60.0,45.0,-100.00,NW,321,7.0,9.0,58,0.00,,,0.00,3.000000,,2013-07-08 12:53:00,
2013-07-08 07:02:00,60.0,45.0,-100.00,NW,321,7.0,9.0,58,0.00,,,0.00,3.000000,,2013-07-08 13:02:00,
2013-07-08 07:11:00,60.0,45.0,-100.00,NW,321,7.0,9.0,58,0.00,,,0.00,3.000000,,2013-07-08 13:11:00,
2013-07-08 07:12:00,62.0,46.0,-100.00,NW,310,6.0,7.0,55,0.00,,,0.00,60.000000,,2013-07-08 13:12:00,
2013-07-08 07:42:00,62.0,46.0,-100.00,NW,310,6.0,7.0,55,0.00,,,0.00,60.000000,,2013-07-08 13:42:00,
2013-07-08 07:53:00,62.0,46.0,-100.00,NW,310,6.0,7.0,55,0.00,,,0.00,60.000000,,2013-07-08 13:53:00,
2013-07-08 08:02:00,62.0,46.0,-100.00,NW,310,6.0,7.0,55,0.00,,,0.00,60.000000,,2013-07-08 14:02:00,
2013-07-08 08:43:00,67.0,47.0,-100.00,West,268,3.0,9.0,49,0.00,,,0.00,251.000000,,2013-07-08 14:43:00,
2013-07-08 08:53:00,67.0,47.0,-100.00,West,268,3.0,9.0,49,0.00,,,0.00,251.000000,,2013-07-08 14:53:00,
2013-07-08 09:02:00,67.0,47.0,-100.00,West,268,3.0,9.0,49,0.00,,,0.00,251.000000,,2013-07-08 15:02:00,
2013-07-08 09:11:00,67.0,47.0,-100.00,West,268,3.0,9.0,49,0.00,,,0.00,251.000000,,2013-07-08 15:11:00,
2013-07-08 09:43:00,72.0,49.0,-100.00,NW,306,3.0,6.0,45,0.00,,,0.00,442.000000,,2013-07-08 15:43:00,
2013-07-08 09:53:00,72.0,49.0,-100.00,NW,306,3.0,6.0,45,0.00,,,0.00,442.000000,,2013-07-08 15:53:00,
2013-07-08 10:01:00,72.0,49.0,-100.00,NW,306,3.0,6.0,45,0.00,,,0.00,442.000000,,2013-07-08 16:01:00,
2013-07-08 10:11:00,72.0,49.0,-100.00,NW,306,3.0,6.0,45,0.00,,,0.00,442.000000,,2013-07-08 16:11:00,
2013-07-08 10:12:00,74.0,47.0,-100.00,WSW,251,3.0,9.0,39,0.00,,,0.00,578.000000,,2013-07-08 16:12:00,
2013-07-08 10:43:00,74.0,47.0,-100.00,WSW,251,3.0,9.0,39,0.00,,,0.00,578.000000,,2013-07-08 16:43:00,
2013-07-08 10:57:00,74.0,47.0,-100.00,WSW,251,3.0,9.0,39,0.00,,,0.00,578.000000,,2013-07-08 16:57:00,
2013-07-08 11:07:00,74.0,47.0,-100.00,WSW,251,3.0,9.0,39,0.00,,,0.00,578.000000,,2013-07-08 17:07:00,
2013-07-08 11:48:00,78.0,48.0,-100.00,WSW,238,5.0,10.0,35,0.00,,,0.00,801.000000,,2013-07-08 17:48:00,
2013-07-08 11:55:00,78.0,48.0,-100.00,WSW,238,5.0,10.0,35,0.00,,,0.00,801.000000,,2013-07-08 17:55:00,
2013-07-08 12:05:00,78.0,48.0,-100.00,WSW,238,5.0,10.0,35,0.00,,,0.00,801.000000,,2013-07-08 18:05:00,
2013-07-08 12:55:00,80.0,46.0,-100.00,WNW,289,8.0,12.0,30,0.00,,,0.00,838.000000,,2013-07-08 18:55:00,
2013-07-08 13:00:00,80.0,46.0,-100.00,WNW,289,8.0,12.0,30,0.00,,,0.00,838.000000,,2013-07-08 19:00:00,
2013-07-08 13:10:00,80.0,46.0,-100.00,WNW,289,8.0,12.0,30,0.00,,,0.00,838.000000,,2013-07-08 19:10:00,
2013-07-08 13:57:00,81.0,46.0,-100.00,West,265,7.0,14.0,29,0.00,,,0.00,873.000000,,2013-07-08 19:57:00,
2013-07-08 14:05:00,81.0,46.0,-100.00,West,265,7.0,14.0,29,0.00,,,0.00,873.000000,,2013-07-08 20:05:00,
2013-07-08 14:12:00,86.0,43.0,-100.00,WNW,299,6.0,15.0,22,0.00,,,0.00,914.000000,,2013-07-08 20:12:00,
2013-07-08 14:55:00,86.0,43.0,-100.00,WNW,299,6.0,15.0,22,0.00,,,0.00,914.000000,,2013-07-08 20:55:00,
2013-07-08 15:06:00,86.0,43.0,-100.00,WNW,299,6.0,15.0,22,0.00,,,0.00,914.000000,,2013-07-08 21:06:00,
2013-07-08 15:12:00,86.0,40.0,-100.00,WNW,289,8.0,17.0,20,0.00,,,0.00,872.000000,,2013-07-08 21:12:00,
2013-07-08 16:08:00,86.0,40.0,-100.00,WNW,289,8.0,17.0,20,0.00,,,0.00,872.000000,,2013-07-08 22:08:00,
2013-07-08 16:12:00,81.0,40.0,-100.00,West,278,10.0,17.0,23,0.00,,,0.00,653.000000,,2013-07-08 22:12:00,
2013-07-08 17:07:00,81.0,40.0,-100.00,West,278,10.0,17.0,23,0.00,,,0.00,653.000000,,2013-07-08 23:07:00,
2013-07-08 17:12:00,84.0,37.0,-100.00,WNW,288,8.0,14.0,19,0.00,,,0.00,612.000000,,2013-07-08 23:12:00,
2013-07-08 18:58:00,80.0,34.0,-100.00,West,270,6.0,12.0,19,0.00,,,0.00,379.000000,,2013-07-09 00:58:00,
2013-07-08 19:10:00,80.0,34.0,-100.00,West,270,6.0,12.0,19,0.00,,,0.00,379.000000,,2013-07-09 01:10:00,
2013-07-08 19:12:00,-999.0,-99.9,-100.00,SW,223,6.0,11.0,20,0.00,,,0.00,76.000000,,2013-07-09 01:12:00,
2013-07-08 20:12:00,70.0,43.0,-100.00,SE,129,11.0,23.0,37,0.00,,,0.00,12.000000,,2013-07-09 02:12:00,
2013-07-08 20:49:00,70.0,43.0,-100.00,SE,129,11.0,23.0,37,0.00,,,0.00,12.000000,,2013-07-09 02:49:00,
2013-07-08 21:00:00,70.0,43.0,-100.00,SE,129,11.0,23.0,37,0.00,,,0.00,12.000000,,2013-07-09 03:00:00,
2013-07-08 21:08:00,70.0,43.0,-100.00,SE,129,11.0,23.0,37,0.00,,,0.00,12.000000,,2013-07-09 03:08:00,
2013-07-08 21:59:00,67.0,46.0,-100.00,SE,125,10.0,17.0,46,0.00,,,0.00,1.000000,,2013-07-09 03:59:00,
2013-07-08 22:02:00,67.0,46.0,-100.00,SE,125,10.0,17.0,46,0.00,,,0.00,1.000000,,2013-07-09 04:02:00,
2013-07-08 22:11:00,67.0,46.0,-100.00,SE,125,10.0,17.0,46,0.00,,,0.00,1.000000,,2013-07-09 04:11:00,
2013-07-08 22:34:00,66.0,46.0,-100.00,ESE,114,8.0,16.0,49,0.00,,,0.00,0.000000,,2013-07-09 04:34:00,
2013-07-08 22:43:00,66.0,46.0,-100.00,ESE,114,8.0,16.0,49,0.00,,,0.00,0.000000,,2013-07-09 04:43:00,
2013-07-08 22:53:00,66.0,46.0,-100.00,ESE,114,8.0,16.0,49,0.00,,,0.00,0.000000,,2013-07-09 04:53:00,
2013-07-08 23:02:00,66.0,46.0,-100.00,ESE,114,8.0,16.0,49,0.00,,,0.00,0.000000,,2013-07-09 05:02:00,
2013-07-08 23:11:00,66.0,46.0,-100.00,ESE,114,8.0,16.0,49,0.00,,,0.00,0.000000,,2013-07-09 05:11:00,
2013-07-08 23:42:00,66.0,44.0,-100.00,ENE,71,4.0,15.0,45,0.00,,,0.00,0.000000,,2013-07-09 05:42:00,
2013-07-08 23:52:00,66.0,44.0,-100.00,ENE,71,4.0,15.0,45,0.00,,,0.00,0.000000,,2013-07-09 05:52:00,